| time (UTC) | temp C | wind direction | speed KPH | gust KPH | rain 1hr cm | rain 24hr cm | rain mn cm | humidity % | barometer mb |
| 20260507143212 | 15 | 279 | 12.9 | 0.0 | 0.00 | 0.00 | 0.10 | 63 | 1013.4 |
| 20260507140210 | 14 | 329 | 12.9 | 0.0 | 0.00 | 0.00 | 0.10 | 67 | 1013.4 |
| 20260507133210 | 15 | 312 | 11.3 | 0.0 | 0.00 | 0.00 | 0.10 | 68 | 1013.5 |
| 20260507130210 | 13 | 312 | 17.7 | 0.0 | 0.00 | 0.00 | 0.10 | 75 | 1013.4 |
| 20260507123210 | 13 | 319 | 16.1 | 0.0 | 0.00 | 0.00 | 0.10 | 72 | 1013.4 |
| 20260507120211 | 14 | 227 | 9.7 | 0.0 | 0.00 | 0.00 | 0.10 | 70 | 1013.1 |
| 20260507113210 | 13 | 137 | 9.7 | 0.0 | 0.00 | 0.00 | 0.10 | 68 | 1013.4 |
| 20260507110210 | 12 | 227 | 11.3 | 0.0 | 0.00 | 0.00 | 0.10 | 71 | 1013.4 |
| 20260507103216 | 12 | 209 | 12.9 | 0.0 | 0.00 | 0.00 | 0.10 | 73 | 1013.4 |
| 20260507100212 | 12 | 227 | 9.7 | 0.0 | 0.00 | 0.00 | 0.10 | 80 | 1013.4 |
| 20260507093210 | 11 | 140 | 9.7 | 0.0 | 0.00 | 0.00 | 0.10 | 81 | 1013.4 |
| 20260507090211 | 11 | 192 | 16.1 | 0.0 | 0.00 | 0.00 | 0.10 | 83 | 1013.2 |
| 20260507083212 | 10 | 200 | 6.4 | 0.0 | 0.00 | 0.00 | 0.10 | 87 | 1013.0 |
| 20260507080211 | 10 | 189 | 3.2 | 0.0 | 0.00 | 0.00 | 0.10 | 91 | 1013.0 |
| 20260507073212 | 9 | 226 | 6.4 | 0.0 | 0.00 | 0.00 | 0.08 | 91 | 1012.7 |
| 20260507070212 | 9 | 219 | 11.3 | 0.0 | 0.00 | 0.00 | 0.08 | 92 | 1012.5 |
| 20260507063211 | 8 | 190 | 4.8 | 0.0 | 0.00 | 0.00 | 0.05 | 92 | 1012.3 |
| 20260507060211 | 8 | 221 | 8.0 | 0.0 | 0.00 | 0.00 | 0.05 | 91 | 1012.1 |
| 20260507053211 | 8 | 200 | 8.0 | 0.0 | 0.00 | 0.00 | 0.03 | 91 | 1011.8 |
| 20260507050213 | 8 | 191 | 6.4 | 0.0 | 0.00 | 0.00 | 0.03 | 91 | 1011.4 |
| 20260507043211 | 8 | 212 | 9.7 | 0.0 | 0.00 | 0.00 | 0.03 | 90 | 1011.0 |
| 20260507040216 | 8 | 196 | 4.8 | 0.0 | 0.00 | 0.00 | 0.00 | 89 | 1010.7 |
| 20260507033211 | 7 | 232 | 8.0 | 0.0 | 0.00 | 0.00 | 0.00 | 89 | 1010.6 |
| 20260507030211 | 7 | 195 | 3.2 | 0.0 | 0.00 | 0.00 | 0.00 | 89 | 1010.4 |
| 20260507023211 | 7 | 258 | 11.3 | 0.0 | 0.00 | 0.00 | 0.00 | 89 | 1010.2 |
| 20260507020211 | 8 | 207 | 11.3 | 0.0 | 0.00 | 0.00 | 0.00 | 91 | 1010.2 |
| 20260507013212 | 7 | 208 | 8.0 | 0.0 | 0.00 | 0.00 | 0.00 | 92 | 1010.3 |
| 20260507010211 | 7 | 208 | 4.8 | 0.0 | 0.00 | 0.00 | 0.00 | 92 | 1010.2 |
| 20260507003209 | 7 | 187 | 3.2 | 0.0 | 0.00 | 0.00 | 0.00 | 92 | 1010.0 |
| 20260507000209 | 7 | 188 | 4.8 | 0.0 | 0.00 | 0.00 | 0.00 | 92 | 1009.9 |
| 20260506233209 | 7 | 184 | 1.6 | 0.0 | 0.00 | 0.00 | 0.00 | 92 | 1009.9 |
| 20260506230209 | 7 | 223 | 6.4 | 0.0 | 0.00 | 0.00 | 0.00 | 92 | 1009.8 |
| 20260506223209 | 7 | 167 | 6.4 | 0.0 | 0.00 | 0.00 | 0.00 | 91 | 1009.5 |
| 20260506220209 | 8 | 224 | 6.4 | 0.0 | 0.00 | 0.00 | 0.23 | 91 | 1009.2 |
| 20260506213209 | 8 | 180 | 11.3 | 0.0 | 0.00 | 0.00 | 0.23 | 91 | 1009.1 |
| 20260506210210 | 8 | 202 | 9.7 | 0.0 | 0.00 | 0.00 | 0.23 | 90 | 1008.9 |
| 20260506203210 | 8 | 195 | 9.7 | 0.0 | 0.00 | 0.00 | 0.23 | 89 | 1008.9 |
| 20260506200210 | 8 | 227 | 3.2 | 0.0 | 0.00 | 0.00 | 0.23 | 89 | 1008.8 |
| 20260506193215 | 9 | 198 | 4.8 | 0.0 | 0.00 | 0.00 | 0.23 | 90 | 1008.6 |
| 20260506190211 | 9 | 250 | 4.8 | 0.0 | 0.00 | 0.00 | 0.23 | 89 | 1008.2 |
| 20260506183209 | 10 | 157 | 8.0 | 0.0 | 0.00 | 0.00 | 0.23 | 88 | 1007.7 |
| 20260506180216 | 10 | 221 | 4.8 | 0.0 | 0.00 | 0.00 | 0.23 | 87 | 1007.6 |
| 20260506173210 | 10 | 167 | 6.4 | 0.0 | 0.00 | 0.00 | 0.23 | 87 | 1007.4 |
| 20260506170215 | 10 | 213 | 11.3 | 0.0 | 0.00 | 0.00 | 0.23 | 88 | 1006.7 |
| 20260506163210 | 10 | 218 | 11.3 | 0.0 | 0.00 | 0.00 | 0.23 | 87 | 1006.6 |
| 20260506160210 | 10 | 166 | 17.7 | 0.0 | 0.00 | 0.00 | 0.23 | 89 | 1006.7 |
| 20260506153210 | 9 | 221 | 9.7 | 0.0 | 0.00 | 0.00 | 0.23 | 89 | 1006.1 |
| 20260506150210 | 10 | 209 | 12.9 | 0.0 | 0.00 | 0.00 | 0.10 | 86 | 1006.3 |